Wind_Speed
17 16 16 15 15 14 14 14 13 12 12 11 11 11 10 10 10 10 9 8 7 7 7 7 7 7 7 6 6 6 6 5 6 6 6 6 6 6 7 7 7 7 7
18 18 17 16 16 16 15 15 15 14 13 13 13 12 12 11 11 11 10 10 9 8 8 8 8 8 8 8 8 7 7 7 7 7 7 8 8 8 8 8 8 8 9
21 20 19 18 18 18 17 17 16 16 15 15 14 14 13 12 12 12 12 11 10 10 9 9 9 9 9 9 10 9 9 9 9 9 9 9 9 9 10 10 10 10 10
22 21 21 21 20 20 19 19 18 18 17 16 16 15 15 14 14 13 13 13 12 11 11 10 10 10 11 11 11 11 11 11 11 10 10 10 11 11 11 11 11 12 12
24 23 23 22 22 21 21 20 19 19 18 18 17 17 16 16 15 15 14 14 14 13 12 12 12 12 12 12 12 12 13 12 12 12 12 12 12 12 12 12 12 13 13
25 26 25 25 24 23 22 21 20 19 19 18 18 18 18 17 17 16 16 16 15 15 14 14 14 13 13 13 13 13 14 14 13 13 13 13 14 14 13 13 14 14 14
27 27 27 26 25 25 24 23 22 21 20 19 19 19 19 18 18 18 17 17 17 17 16 16 16 16 15 15 14 15 15 15 15 15 15 15 15 15 15 15 15 15 16
28 28 27 26 26 25 25 25 24 23 21 21 20 20 19 19 19 19 18 18 18 18 18 17 18 17 17 17 16 16 16 16 16 16 16 16 17 17 16 16 17 17 17
28 28 27 27 27 26 25 25 25 24 23 22 21 21 21 20 20 20 20 19 18 19 19 19 19 19 18 18 18 17 17 17 17 17 17 18 18 18 18 18 19 19 19
29 29 28 27 27 27 26 25 26 26 25 23 23 22 22 21 21 21 20 20 20 19 20 20 20 20 20 20 19 19 18 18 18 18 19 19 19 20 20 20 20 21 21
30 29 30 29 28 28 27 26 26 27 26 25 24 23 23 23 22 22 21 21 21 20 20 20 20 21 21 21 20 20 20 19 19 19 20 20 20 21 21 21 22 22 22
30 30 30 30 29 29 28 27 27 27 27 26 26 25 24 24 23 23 22 22 22 21 21 21 21 22 22 22 22 21 21 21 21 21 21 21 21 21 22 22 22 22 23
30 30 31 30 30 29 29 28 27 27 27 27 27 26 25 25 25 24 24 24 23 22 22 22 22 23 23 23 22 22 22 22 22 22 22 22 22 23 23 22 23 23 23
30 31 30 30 30 30 30 29 28 27 27 28 28 27 26 26 25 24 25 25 25 24 23 22 22 23 23 24 24 23 23 23 24 23 23 23 24 24 23 23 24 24 24
30 31 31 30 30 31 31 30 29 28 28 28 28 28 28 27 26 26 27 26 25 25 24 23 23 23 23 24 24 24 24 24 25 24 24 24 24 24 24 25 25 25 26
29 30 31 31 30 30 30 30 30 29 28 29 29 29 29 28 28 27 27 27 26 25 25 24 24 24 24 24 25 26 26 26 26 26 25 25 25 26 26 26 26 26 27
28 28 29 30 31 31 31 32 31 30 28 30 31 31 31 29 29 29 29 29 28 27 27 27 26 26 25 25 26 26 26 27 27 27 27 27 27 27 28 28 27 27 28
27 27 27 29 30 30 32 33 33 33 30 29 30 31 32 31 31 30 31 31 30 29 29 28 28 27 27 27 27 27 28 28 28 28 29 29 29 29 29 29 28 28 28
26 27 28 27 29 31 31 32 32 33 31 30 31 32 33 33 32 32 32 32 32 32 31 31 30 30 30 29 29 30 30 30 30 30 30 31 30 30 30 30 30 30 29
25 27 27 27 28 30 31 31 31 32 31 31 32 33 33 33 33 33 33 33 34 34 33 33 32 32 32 32 32 32 32 32 32 32 32 31 31 31 30 30 30 30 30
27 27 27 28 28 29 29 31 32 32 31 31 32 32 33 34 34 34 35 35 35 35 35 34 34 34 34 34 34 34 34 33 34 33 33 32 32 32 31 31 31 32 32
27 29 29 28 29 30 30 31 32 33 32 31 32 31 33 35 35 35 36 36 36 36 36 36 37 37 36 35 35 35 35 35 35 34 34 34 33 33 33 33 33 33 33
26 27 28 28 28 30 30 31 33 34 34 32 33 33 33 35 37 37 37 37 37 37 37 37 38 38 38 37 37 37 36 35 34 34 34 34 34 33 34 34 34 34 34
26 26 26 27 28 30 31 32 34 34 34 33 33 34 34 36 38 39 39 38 38 39 38 39 39 39 39 39 38 37 36 35 34 34 34 34 34 34 34 35 35 35 35
26 27 27 28 28 30 31 32 33 34 35 35 34 35 35 36 38 39 39 39 39 39 39 39 39 39 38 38 38 37 37 36 36 36 36 36 36 36 36 36 36 37 36
27 28 29 29 29 30 31 33 33 33 35 36 35 35 36 37 38 40 40 40 40 40 40 41 40 40 40 39 39 39 39 38 37 37 37 38 37 38 38 37 37 37 36
Wind_Direction
242 243 242 240 239 237 233 231 229 227 227 226 225 223 223 224 224 224 224 225 231 236 238 241 243 248 248 249 253 257 260 263 269 275 281 285 289 293 296 301 306 310 312
241 244 244 242 241 239 237 235 233 231 230 228 228 227 226 226 227 228 230 231 233 239 242 244 246 249 250 252 255 259 263 267 271 276 280 283 286 290 294 297 300 304 308
242 244 244 243 242 241 239 238 236 234 233 232 231 230 229 229 229 231 233 236 237 238 242 246 248 252 254 255 258 261 264 267 272 275 280 284 286 288 289 294 298 301 304
242 244 245 244 242 241 242 240 238 236 236 235 234 232 232 232 232 234 236 240 241 241 244 248 251 255 256 257 259 261 264 267 271 275 280 284 286 288 288 289 293 297 300
243 244 245 244 242 241 241 239 238 236 235 235 235 234 234 234 235 237 239 241 244 244 245 249 253 255 256 257 260 262 263 266 270 274 278 281 284 285 287 288 292 296 299
243 244 245 242 241 239 237 237 236 236 234 234 234 234 233 235 236 238 240 243 245 247 247 250 253 254 255 258 261 261 262 265 269 273 276 278 280 283 285 287 291 295 297
243 244 245 241 238 237 237 236 235 235 234 233 233 233 233 234 237 239 242 245 246 248 249 251 252 254 255 258 261 261 262 265 269 272 275 277 280 281 284 285 288 293 296
244 243 241 238 235 234 235 235 235 235 235 234 233 233 234 235 238 240 243 246 247 249 250 250 252 254 256 258 260 261 262 265 268 270 274 277 280 282 283 285 289 292 295
243 241 239 238 235 234 233 233 234 234 234 234 234 234 235 236 239 242 244 247 248 249 250 251 253 255 256 258 260 261 262 265 268 270 273 276 279 281 283 285 289 292 295
241 240 237 237 236 234 234 234 233 234 234 234 235 236 236 237 240 243 246 248 249 250 251 252 254 256 257 258 259 260 262 265 269 270 272 275 278 281 283 285 288 291 294
239 238 237 236 235 233 233 235 234 233 233 235 235 235 237 238 240 244 247 249 251 251 252 253 255 256 257 258 259 261 262 265 269 272 273 274 278 281 282 284 288 290 292
239 237 236 235 233 233 232 233 233 234 234 235 236 236 237 239 242 245 247 249 251 252 253 255 256 256 258 259 259 261 263 265 269 272 273 275 278 281 283 285 287 289 291
238 235 235 233 232 232 232 233 232 235 236 235 236 237 238 240 241 244 247 249 251 253 255 257 258 258 258 258 260 261 263 267 270 272 273 275 277 279 281 284 286 289 291
236 234 235 232 231 231 231 233 234 235 235 236 237 238 239 241 241 245 248 250 252 254 256 258 260 260 259 258 259 261 264 267 269 271 273 274 276 278 280 282 285 288 290
235 234 235 233 232 231 231 232 234 234 234 237 237 238 239 242 243 246 248 249 251 253 255 258 259 260 259 258 260 262 265 267 269 270 273 275 276 278 280 282 285 287 288
236 236 235 234 233 232 231 231 233 234 235 237 237 238 240 241 244 246 247 249 250 252 254 256 256 257 259 259 260 263 265 266 268 270 273 275 276 278 281 284 286 287 288
239 235 232 230 232 232 231 232 233 234 236 238 239 238 240 243 246 248 248 249 250 251 253 254 254 256 258 258 260 263 265 266 268 269 271 274 277 279 281 283 285 287 288
239 235 234 230 230 231 231 232 234 234 236 238 240 239 241 243 247 249 249 249 250 250 251 253 253 256 258 259 260 263 265 266 268 270 271 275 278 279 282 284 284 284 285
240 236 237 234 232 232 232 233 235 235 237 240 241 241 242 243 246 249 250 249 249 250 250 252 254 255 258 259 261 263 265 266 267 270 273 275 278 280 281 283 284 284 284
242 240 241 237 235 234 235 236 238 237 238 241 242 243 243 243 246 249 251 251 251 251 251 252 254 255 258 259 261 262 264 266 268 270 274 276 277 279 280 282 283 283 283
245 243 243 241 238 237 239 239 240 239 241 244 243 243 242 244 247 249 251 251 251 251 251 253 254 256 259 260 261 262 264 266 269 271 273 274 276 277 278 280 282 282 284
247 245 243 244 240 238 240 241 241 241 243 246 245 246 246 246 247 249 250 251 251 251 252 253 255 256 258 260 262 262 264 267 269 270 272 273 273 275 276 279 281 282 283
246 247 246 245 242 241 242 242 243 243 244 247 248 249 249 248 248 248 250 251 252 252 253 254 256 258 258 261 263 263 264 266 268 269 270 272 273 275 276 278 280 281 282
249 250 249 248 248 245 244 244 245 245 245 250 252 250 251 251 250 249 251 252 252 252 253 254 256 258 259 260 261 263 264 266 267 268 269 271 273 275 277 278 279 280 282
251 252 252 250 249 248 247 248 248 248 248 251 253 253 253 253 252 250 252 253 252 252 252 254 255 257 258 260 262 263 263 264 265 267 269 271 272 274 277 278 279 280 280
252 252 253 253 252 249 248 248 249 251 252 254 255 255 254 255 254 252 252 253 252 253 254 254 255 257 258 262 263 263 264 263 264 266 268 269 271 274 276 278 279 279 279
Height
5839 5840 5842 5843 5845 5846 5847 5849 5850 5852 5853 5855 5856 5858 5859 5861 5862 5864 5865 5866 5867 5869 5870 5871 5872 5873 5874 5874 5875 5875 5876 5876 5877 5877 5877 5878 5878 5878 5877 5877 5877 5877 5876
5835 5837 5838 5840 5842 5843 5845 5846 5848 5849 5851 5852 5854 5855 5857 5859 5860 5862 5863 5864 5866 5867 5868 5869 5870 5871 5872 5873 5874 5874 5875 5875 5876 5876 5876 5876 5876 5876 5876 5876 5875 5875 5875
5831 5833 5834 5836 5838 5840 5841 5843 5845 5846 5848 5850 5851 5853 5855 5856 5858 5860 5861 5862 5864 5865 5866 5867 5868 5869 5870 5871 5872 5872 5873 5873 5874 5874 5875 5875 5875 5875 5874 5874 5874 5873 5873
5826 5828 5830 5832 5834 5835 5837 5839 5841 5843 5845 5847 5848 5850 5852 5854 5855 5857 5858 5860 5861 5863 5864 5865 5866 5867 5868 5868 5869 5870 5871 5871 5872 5872 5873 5873 5873 5873 5872 5872 5872 5872 5871
5821 5823 5825 5827 5829 5831 5833 5835 5837 5839 5841 5843 5845 5847 5849 5851 5852 5854 5856 5857 5859 5860 5861 5862 5863 5864 5865 5866 5867 5868 5868 5869 5870 5870 5870 5871 5871 5870 5870 5870 5870 5869 5869
5815 5817 5819 5821 5823 5826 5828 5830 5833 5835 5837 5839 5841 5843 5845 5847 5849 5851 5852 5854 5856 5857 5858 5859 5860 5861 5862 5863 5864 5865 5865 5866 5867 5867 5868 5868 5868 5868 5868 5868 5867 5867 5867
5809 5811 5813 5815 5817 5820 5823 5825 5828 5830 5833 5835 5837 5839 5841 5843 5845 5847 5849 5851 5852 5854 5855 5856 5857 5858 5859 5860 5861 5862 5863 5863 5864 5865 5865 5865 5865 5865 5865 5865 5865 5865 5864
5802 5804 5806 5808 5811 5813 5817 5820 5823 5826 5828 5831 5833 5835 5837 5840 5841 5843 5845 5847 5848 5850 5851 5852 5853 5854 5856 5857 5858 5859 5859 5860 5861 5861 5862 5862 5862 5862 5862 5862 5862 5862 5861
5795 5797 5800 5802 5805 5808 5811 5814 5817 5820 5823 5826 5829 5831 5833 5835 5837 5839 5841 5843 5844 5846 5847 5848 5849 5851 5852 5853 5854 5855 5856 5857 5857 5858 5858 5859 5859 5859 5859 5859 5859 5858 5858
5788 5790 5793 5796 5799 5802 5805 5809 5811 5815 5818 5821 5824 5827 5829 5831 5833 5835 5837 5839 5840 5841 5842 5844 5845 5846 5848 5849 5850 5851 5852 5853 5854 5854 5855 5855 5855 5856 5856 5855 5855 5855 5854
5781 5784 5786 5790 5793 5796 5799 5803 5806 5809 5812 5816 5819 5822 5824 5826 5829 5831 5832 5834 5836 5837 5838 5839 5841 5842 5843 5845 5846 5847 5848 5849 5850 5850 5851 5851 5851 5852 5852 5852 5851 5851 5850
5775 5778 5780 5783 5787 5790 5794 5797 5800 5804 5807 5810 5814 5817 5819 5821 5824 5826 5828 5830 5831 5832 5834 5835 5836 5838 5839 5840 5842 5843 5844 5845 5846 5846 5847 5847 5847 5847 5847 5847 5847 5846 5846
5768 5771 5774 5777 5780 5784 5788 5791 5794 5798 5801 5805 5808 5811 5814 5816 5819 5821 5823 5825 5827 5828 5829 5830 5831 5833 5834 5836 5837 5838 5840 5840 5841 5842 5842 5842 5843 5843 5843 5843 5842 5842 5841
5761 5764 5767 5771 5774 5778 5781 5785 5789 5792 5795 5798 5802 5805 5808 5811 5813 5816 5818 5820 5822 5823 5825 5826 5827 5828 5829 5831 5832 5833 5835 5836 5836 5837 5837 5838 5838 5838 5838 5838 5837 5837 5836
5754 5757 5761 5765 5768 5772 5775 5779 5783 5786 5789 5792 5796 5799 5803 5806 5808 5811 5813 5815 5817 5818 5819 5821 5822 5823 5824 5826 5827 5829 5830 5831 5831 5832 5832 5832 5833 5833 5833 5833 5832 5832 5831
5747 5750 5754 5757 5761 5765 5769 5772 5776 5779 5783 5786 5790 5793 5797 5800 5803 5805 5807 5809 5811 5813 5814 5815 5816 5818 5819 5821 5822 5823 5824 5825 5826 5827 5827 5827 5827 5828 5828 5827 5827 5826 5825
5741 5744 5747 5751 5755 5759 5763 5766 5769 5773 5776 5780 5783 5787 5790 5794 5796 5799 5801 5803 5805 5806 5808 5810 5811 5812 5814 5816 5817 5817 5818 5820 5820 5821 5821 5822 5822 5822 5822 5821 5821 5820 5820
5736 5738 5741 5744 5748 5752 5756 5759 5763 5766 5770 5773 5777 5780 5784 5787 5789 5792 5794 5796 5798 5800 5802 5804 5805 5807 5808 5810 5811 5812 5813 5814 5814 5815 5816 5816 5816 5816 5816 5815 5815 5814 5813
5731 5734 5736 5739 5742 5745 5749 5753 5756 5760 5763 5767 5770 5773 5776 5779 5782 5784 5787 5789 5791 5793 5795 5797 5799 5801 5802 5804 5805 5806 5807 5808 5808 5809 5809 5809 5809 5809 5809 5809 5808 5808 5807
5726 5728 5731 5733 5736 5740 5743 5747 5750 5754 5758 5761 5763 5766 5769 5772 5774 5777 5779 5782 5784 5786 5788 5790 5792 5794 5795 5797 5798 5799 5800 5801 5801 5802 5802 5803 5803 5803 5803 5802 5802 5801 5800
5721 5723 5725 5728 5731 5734 5738 5742 5745 5748 5752 5755 5757 5760 5762 5764 5767 5769 5772 5774 5776 5778 5780 5782 5784 5786 5788 5789 5791 5792 5793 5794 5794 5795 5795 5795 5796 5796 5796 5795 5795 5794 5794
5717 5719 5721 5723 5726 5729 5732 5736 5739 5742 5745 5748 5750 5753 5755 5757 5759 5762 5764 5766 5768 5769 5772 5774 5776 5778 5780 5782 5783 5784 5785 5787 5787 5788 5788 5788 5788 5788 5788 5788 5788 5787 5787
5712 5714 5716 5718 5720 5723 5726 5729 5732 5736 5739 5741 5744 5746 5748 5749 5752 5754 5756 5758 5760 5761 5763 5766 5769 5771 5772 5774 5775 5777 5778 5779 5780 5781 5781 5781 5781 5781 5781 5781 5781 5780 5779
5707 5708 5710 5712 5715 5718 5720 5723 5726 5730 5732 5735 5737 5739 5740 5742 5744 5746 5748 5750 5752 5753 5756 5758 5760 5763 5764 5765 5767 5768 5770 5771 5772 5773 5774 5774 5774 5774 5774 5774 5773 5772 5772
5701 5703 5704 5707 5709 5712 5715 5717 5720 5723 5725 5727 5729 5731 5732 5733 5735 5737 5739 5741 5743 5745 5747 5749 5751 5754 5755 5757 5758 5760 5761 5762 5764 5765 5766 5766 5766 5766 5766 5766 5765 5765 5764
5695 5697 5699 5701 5703 5706 5708 5711 5713 5716 5718 5720 5721 5722 5723 5725 5726 5728 5730 5732 5734 5736 5738 5740 5743 5744 5746 5748 5749 5751 5752 5753 5755 5756 5757 5758 5758 5758 5758 5757 5757 5757 5756